TimeEST,TemperatureF,Dew PointF,Humidity,Sea Level PressureIn,VisibilityMPH,Wind Direction,Wind SpeedMPH,Gust SpeedMPH,PrecipitationIn,Events,Conditions,WindDirDegrees,DateUTC
12:54 AM,30.0,12.9,49,30.43,10.0,SSW,5.8,-,N/A,,Clear,210,2013-01-19 05:54:00
1:54 AM,30.0,14.0,51,30.42,10.0,SSW,9.2,-,N/A,,Clear,210,2013-01-19 06:54:00
2:54 AM,28.9,16.0,58,30.40,10.0,SSW,4.6,-,N/A,,Clear,200,2013-01-19 07:54:00
3:54 AM,28.9,18.0,64,30.38,10.0,SSW,5.8,-,N/A,,Clear,200,2013-01-19 08:54:00
4:54 AM,30.9,19.9,64,30.36,10.0,SSW,10.4,-,N/A,,Clear,210,2013-01-19 09:54:00
5:54 AM,32.0,21.0,64,30.36,10.0,SW,11.5,-,N/A,,Partly Cloudy,220,2013-01-19 10:54:00
6:54 AM,33.1,23.0,66,30.35,10.0,SW,10.4,-,N/A,,Clear,220,2013-01-19 11:54:00
7:54 AM,33.1,24.1,70,30.34,10.0,SSW,12.7,19.6,N/A,,Clear,210,2013-01-19 12:54:00
8:54 AM,36.0,25.0,64,30.35,10.0,SSW,17.3,23.0,N/A,,Clear,210,2013-01-19 13:54:00
9:54 AM,37.9,25.0,60,30.34,10.0,SW,17.3,26.5,N/A,,Clear,220,2013-01-19 14:54:00
10:54 AM,42.1,26.1,53,30.30,10.0,SW,15.0,-,N/A,,Clear,220,2013-01-19 15:54:00
11:54 AM,45.0,26.1,48,30.25,10.0,SW,17.3,21.9,N/A,,Clear,220,2013-01-19 16:54:00
12:54 PM,46.9,26.1,44,30.20,10.0,SW,16.1,21.9,N/A,,Clear,230,2013-01-19 17:54:00
1:54 PM,48.9,26.1,41,30.17,10.0,SSW,13.8,23.0,N/A,,Clear,210,2013-01-19 18:54:00
2:54 PM,50.0,25.0,38,30.14,10.0,SW,17.3,26.5,N/A,,Clear,230,2013-01-19 19:54:00
3:54 PM,50.0,26.1,39,30.12,10.0,SW,13.8,20.7,N/A,,Clear,220,2013-01-19 20:54:00
4:54 PM,48.9,25.0,39,30.10,10.0,SW,12.7,19.6,N/A,,Clear,220,2013-01-19 21:54:00
5:54 PM,46.9,26.1,44,30.10,10.0,SSW,5.8,-,N/A,,Clear,200,2013-01-19 22:54:00
6:54 PM,45.0,27.0,49,30.09,10.0,SSW,9.2,-,N/A,,Clear,200,2013-01-19 23:54:00
7:54 PM,44.1,27.0,51,30.07,10.0,SSW,11.5,17.3,N/A,,Clear,200,2013-01-20 00:54:00
8:54 PM,43.0,28.0,56,30.06,10.0,SSW,9.2,-,N/A,,Clear,210,2013-01-20 01:54:00
9:54 PM,42.1,28.0,58,30.03,10.0,SSW,10.4,-,N/A,,Clear,210,2013-01-20 02:54:00
10:54 PM,41.0,28.0,60,30.00,10.0,SSW,6.9,-,N/A,,Clear,200,2013-01-20 03:54:00
11:54 PM,41.0,28.0,60,29.96,10.0,SSW,9.2,-,N/A,,Clear,210,2013-01-20 04:54:00